Location: Kelowna
(49.8880°N, 119.4960°W)
Time: 12:13:16
(UTC-07:00)

CUTE 1.7 + AOD 2 - Visible Passes

Search period start: 22 April 2024 00:00
Search period end: 02 May 2024 00:00
Orbit: 571 x 588 km, 97.7° (Epoch: 21 April)

Date Brightness Start Highest point End Pass type
(mag) Time Alt. Az. Time Alt. Az. Time Alt. Az.
22 Apr ? 04:16:04 10° NNE 04:20:01 46° E 04:23:56 10° S visible
23 Apr ? 04:20:49 10° NNE 04:24:49 51° E 04:28:47 10° S visible
24 Apr ? 04:25:32 10° NNE 04:29:35 58° ESE 04:33:35 10° S visible
25 Apr ? 04:30:15 10° NNE 04:34:19 65° ESE 04:38:21 10° S visible
26 Apr ? 04:34:56 10° NNE 04:39:02 73° ESE 04:43:05 10° S visible
27 Apr ? 04:39:36 10° NNE 04:43:42 81° E 04:47:46 10° SSW visible
28 Apr ? 03:12:02 10° E 03:12:25 10° E 03:12:48 10° E visible
28 Apr ? 04:44:15 10° NNE 04:48:21 90° NW 04:52:25 10° SSW visible
29 Apr ? 03:15:46 10° ENE 03:17:07 11° E 03:18:27 10° ESE visible
29 Apr ? 04:48:53 10° NNE 04:52:59 81° WNW 04:57:03 10° SSW visible
30 Apr ? 03:19:56 10° ENE 03:21:46 13° E 03:23:36 10° ESE visible
30 Apr ? 04:53:30 10° N 04:57:34 73° WNW 05:01:38 10° SSW visible
01 May ? 03:24:12 10° NE 03:26:24 14° E 03:28:36 10° ESE visible
